Time,TemperatureF,DewpointF,PressureIn,WindDirection,WindDirectionDegrees,WindSpeedMPH,WindSpeedGustMPH,Humidity,HourlyPrecipIn,Conditions,Clouds,dailyrainin,SoftwareType,DateUTC
2013-06-03 00:05:00,58.4,46.7,29.96,SE,134,5.0,13.0,65,0.00,,,0.00,Wunderground v.1.15,2013-06-03 05:05:00,
2013-06-03 00:09:00,58.5,46.8,29.96,SE,136,5.0,5.0,65,0.00,,,0.00,Wunderground v.1.15,2013-06-03 05:09:00,
2013-06-03 00:14:00,58.4,47.1,29.96,SE,136,5.0,13.0,66,0.00,,,0.00,Wunderground v.1.15,2013-06-03 05:14:00,
2013-06-03 00:19:00,58.3,47.0,29.96,SE,138,5.0,13.0,66,0.00,,,0.00,Wunderground v.1.15,2013-06-03 05:19:00,
2013-06-03 00:24:00,58.3,47.0,29.96,SE,144,5.0,13.0,66,0.00,,,0.00,Wunderground v.1.15,2013-06-03 05:24:00,
2013-06-03 00:30:00,58.3,47.0,29.96,SSE,147,6.0,13.0,66,0.00,,,0.00,Wunderground v.1.15,2013-06-03 05:30:00,
2013-06-03 00:40:00,58.2,46.9,29.95,SE,138,5.0,13.0,66,0.00,,,0.00,Wunderground v.1.15,2013-06-03 05:40:00,
2013-06-03 00:45:00,58.1,47.2,29.96,SE,138,5.0,13.0,67,0.00,,,0.00,Wunderground v.1.15,2013-06-03 05:45:00,
2013-06-03 00:50:00,58.0,47.1,29.96,SE,138,5.0,5.0,67,0.00,,,0.00,Wunderground v.1.15,2013-06-03 05:50:00,
2013-06-03 00:55:00,57.9,47.0,29.95,SE,136,5.0,13.0,67,0.00,,,0.00,Wunderground v.1.15,2013-06-03 05:55:00,
2013-06-03 01:00:00,57.7,46.8,29.96,SE,136,4.0,13.0,67,0.00,,,0.00,Wunderground v.1.15,2013-06-03 06:00:00,
2013-06-03 01:10:00,57.6,46.7,29.95,SE,138,4.0,13.0,67,0.00,,,0.00,Wunderground v.1.15,2013-06-03 06:10:00,
2013-06-03 01:19:00,57.5,47.0,29.96,SE,138,4.0,4.0,68,0.00,,,0.00,Wunderground v.1.15,2013-06-03 06:19:00,
2013-06-03 01:24:00,57.3,46.8,29.96,SE,138,4.0,13.0,68,0.00,,,0.00,Wunderground v.1.15,2013-06-03 06:24:00,
2013-06-03 01:29:00,57.1,46.6,29.96,SE,138,3.0,13.0,68,0.00,,,0.00,Wunderground v.1.15,2013-06-03 06:29:00,
2013-06-03 01:35:00,56.9,46.4,29.96,SE,138,3.0,13.0,68,0.00,,,0.00,Wunderground v.1.15,2013-06-03 06:35:00,
2013-06-03 01:45:00,56.8,46.7,29.96,SE,138,4.0,13.0,69,0.00,,,0.00,Wunderground v.1.15,2013-06-03 06:45:00,
2013-06-03 01:50:00,56.8,46.7,29.96,SSE,159,4.0,13.0,69,0.00,,,0.00,Wunderground v.1.15,2013-06-03 06:50:00,
2013-06-03 01:55:00,56.8,46.7,29.96,SSE,158,4.0,13.0,69,0.00,,,0.00,Wunderground v.1.15,2013-06-03 06:55:00,
2013-06-03 02:00:00,56.8,46.7,29.96,SSE,150,5.0,13.0,69,0.00,,,0.00,Wunderground v.1.15,2013-06-03 07:00:00,
2013-06-03 02:05:00,56.8,46.7,29.96,SSE,150,5.0,13.0,69,0.00,,,0.00,Wunderground v.1.15,2013-06-03 07:05:00,
2013-06-03 02:10:00,56.7,46.6,29.96,SSE,150,5.0,5.0,69,0.00,,,0.00,Wunderground v.1.15,2013-06-03 07:10:00,
2013-06-03 02:19:00,56.6,46.5,29.96,SSE,155,6.0,6.0,69,0.00,,,0.00,Wunderground v.1.15,2013-06-03 07:19:00,
2013-06-03 02:24:00,56.6,46.5,29.95,SSE,154,5.0,13.0,69,0.00,,,0.00,Wunderground v.1.15,2013-06-03 07:24:00,
2013-06-03 02:29:00,56.5,46.4,29.96,SSE,155,5.0,13.0,69,0.00,,,0.00,Wunderground v.1.15,2013-06-03 07:29:00,
2013-06-03 02:34:00,56.4,46.7,29.96,SSE,157,6.0,13.0,70,0.00,,,0.00,Wunderground v.1.15,2013-06-03 07:34:00,
2013-06-03 02:40:00,56.3,46.6,29.96,SSE,161,6.0,13.0,70,0.00,,,0.00,Wunderground v.1.15,2013-06-03 07:40:00,
2013-06-03 02:45:00,56.2,46.5,29.96,SSE,162,6.0,13.0,70,0.00,,,0.00,Wunderground v.1.15,2013-06-03 07:45:00,
2013-06-03 02:55:00,56.1,46.4,29.96,SSE,163,6.0,13.0,70,0.00,,,0.00,Wunderground v.1.15,2013-06-03 07:55:00,
2013-06-03 03:00:00,56.1,46.8,29.96,SSE,161,6.0,6.0,71,0.00,,,0.00,Wunderground v.1.15,2013-06-03 08:00:00,
2013-06-03 03:05:00,56.0,46.7,29.96,SSE,161,5.0,13.0,71,0.00,,,0.00,Wunderground v.1.15,2013-06-03 08:05:00,
2013-06-03 03:10:00,55.8,46.9,29.96,SSE,162,3.0,3.0,72,0.00,,,0.00,Wunderground v.1.15,2013-06-03 08:10:00,
2013-06-03 03:19:00,55.4,46.9,29.97,SSE,162,3.0,3.0,73,0.00,,,0.00,Wunderground v.1.15,2013-06-03 08:19:00,
2013-06-03 03:29:00,55.3,47.2,29.97,SSE,153,5.0,13.0,74,0.00,,,0.00,Wunderground v.1.15,2013-06-03 08:29:00,
2013-06-03 03:34:00,55.3,47.2,29.97,SSE,155,5.0,13.0,74,0.00,,,0.00,Wunderground v.1.15,2013-06-03 08:34:00,
2013-06-03 03:39:00,55.3,47.2,29.97,SSE,166,6.0,13.0,74,0.00,,,0.00,Wunderground v.1.15,2013-06-03 08:39:00,
2013-06-03 03:45:00,55.3,47.2,29.97,SSE,159,6.0,13.0,74,0.00,,,0.00,Wunderground v.1.15,2013-06-03 08:45:00,
2013-06-03 03:50:00,55.2,47.1,29.97,SSE,159,5.0,5.0,74,0.00,,,0.00,Wunderground v.1.15,2013-06-03 08:50:00,
2013-06-03 04:00:00,55.0,47.2,29.97,SSE,168,5.0,13.0,75,0.00,,,0.00,Wunderground v.1.15,2013-06-03 09:00:00,
2013-06-03 04:05:00,55.0,47.2,29.97,South,171,6.0,13.0,75,0.00,,,0.00,Wunderground v.1.15,2013-06-03 09:05:00,
2013-06-03 04:10:00,54.8,47.0,29.97,South,171,6.0,6.0,75,0.00,,,0.00,Wunderground v.1.15,2013-06-03 09:10:00,
2013-06-03 04:15:00,54.6,47.2,29.97,South,169,6.0,13.0,76,0.00,,,0.00,Wunderground v.1.15,2013-06-03 09:15:00,
2013-06-03 04:24:00,54.3,47.2,29.97,South,169,6.0,13.0,77,0.00,,,0.00,Wunderground v.1.15,2013-06-03 09:24:00,
2013-06-03 04:34:00,53.9,47.2,29.97,South,171,6.0,13.0,78,0.00,,,0.00,Wunderground v.1.15,2013-06-03 09:34:00,
2013-06-03 04:39:00,53.9,47.2,29.97,South,171,6.0,13.0,78,0.00,,,0.00,Wunderground v.1.15,2013-06-03 09:39:00,
2013-06-03 04:44:00,53.7,47.3,29.97,South,169,6.0,13.0,79,0.00,,,0.00,Wunderground v.1.15,2013-06-03 09:44:00,
2013-06-03 04:50:00,53.6,47.2,29.97,South,169,5.0,13.0,79,0.00,,,0.00,Wunderground v.1.15,2013-06-03 09:50:00,
2013-06-03 04:55:00,53.6,47.2,29.97,SSE,159,5.0,13.0,79,0.00,,,0.00,Wunderground v.1.15,2013-06-03 09:55:00,
2013-06-03 05:00:00,53.6,47.2,29.97,South,170,6.0,13.0,79,0.00,,,0.00,Wunderground v.1.15,2013-06-03 10:00:00,
2013-06-03 05:10:00,53.7,47.7,29.98,SSE,168,6.0,13.0,80,0.00,,,0.00,Wunderground v.1.15,2013-06-03 10:10:00,
2013-06-03 05:15:00,53.7,47.7,29.97,South,171,5.0,13.0,80,0.00,,,0.00,Wunderground v.1.15,2013-06-03 10:15:00,
2013-06-03 05:20:00,53.7,47.7,29.97,SSE,157,5.0,13.0,80,0.00,,,0.00,Wunderground v.1.15,2013-06-03 10:20:00,
2013-06-03 05:29:00,53.8,47.8,29.98,SSE,157,6.0,13.0,80,0.00,,,0.00,Wunderground v.1.15,2013-06-03 10:29:00,
2013-06-03 05:35:00,53.7,47.7,29.98,South,170,6.0,13.0,80,0.00,,,0.00,Wunderground v.1.15,2013-06-03 10:35:00,
2013-06-03 05:45:00,53.6,47.9,29.97,SSE,165,6.0,13.0,81,0.00,,,0.00,Wunderground v.1.15,2013-06-03 10:45:00,
2013-06-03 05:50:00,53.5,47.8,29.97,SSE,163,6.0,13.0,81,0.00,,,0.00,Wunderground v.1.15,2013-06-03 10:50:00,
2013-06-03 05:55:00,53.4,47.7,29.97,SSE,164,5.0,13.0,81,0.00,,,0.00,Wunderground v.1.15,2013-06-03 10:55:00,
2013-06-03 06:00:00,53.4,47.7,29.97,South,169,5.0,13.0,81,0.00,,,0.00,Wunderground v.1.15,2013-06-03 11:00:00,
2013-06-03 06:05:00,53.4,47.7,29.97,South,169,5.0,13.0,81,0.00,,,0.00,Wunderground v.1.15,2013-06-03 11:05:00,
2013-06-03 06:15:00,53.4,48.0,29.96,SSE,165,5.0,13.0,82,0.00,,,0.00,Wunderground v.1.15,2013-06-03 11:15:00,
2013-06-03 06:20:00,53.5,48.1,29.96,SSE,164,5.0,13.0,82,0.00,,,0.00,Wunderground v.1.15,2013-06-03 11:20:00,
2013-06-03 06:29:00,53.6,48.2,29.97,SSE,165,5.0,5.0,82,0.00,,,0.00,Wunderground v.1.15,2013-06-03 11:29:00,
2013-06-03 06:34:00,53.7,48.3,29.97,South,170,5.0,6.0,82,0.00,,,0.00,Wunderground v.1.15,2013-06-03 11:34:00,
2013-06-03 06:40:00,53.9,48.5,29.97,South,170,6.0,13.0,82,0.00,,,0.00,Wunderground v.1.15,2013-06-03 11:40:00,
2013-06-03 06:50:00,54.1,48.7,29.97,SSE,157,6.0,13.0,82,0.00,,,0.00,Wunderground v.1.15,2013-06-03 11:50:00,
2013-06-03 06:55:00,54.1,48.7,29.97,South,176,7.0,13.0,82,0.00,,,0.00,Wunderground v.1.15,2013-06-03 11:55:00,
2013-06-03 07:00:00,54.2,48.5,29.97,South,174,7.0,7.0,81,0.00,,,0.00,Wunderground v.1.15,2013-06-03 12:00:00,
2013-06-03 07:05:00,54.4,48.7,29.97,SSE,155,7.0,13.0,81,0.00,,,0.00,Wunderground v.1.15,2013-06-03 12:05:00,
2013-06-03 07:10:00,54.6,48.9,29.96,South,169,7.0,13.0,81,0.00,,,0.00,Wunderground v.1.15,2013-06-03 12:10:00,
2013-06-03 07:15:00,54.8,49.1,29.96,South,169,7.0,13.0,81,0.00,,,0.00,Wunderground v.1.15,2013-06-03 12:15:00,
2013-06-03 07:25:00,55.2,49.1,29.95,South,171,8.0,13.0,80,0.00,,,0.00,Wunderground v.1.15,2013-06-03 12:25:00,
2013-06-03 07:34:00,55.8,49.4,29.95,SSE,153,9.0,12.0,79,0.00,,,0.00,Wunderground v.1.15,2013-06-03 12:34:00,
2013-06-03 07:39:00,56.1,49.3,29.95,South,173,9.0,13.0,78,0.00,,,0.00,Wunderground v.1.15,2013-06-03 12:39:00,
2013-06-03 07:45:00,56.3,49.5,29.94,SSE,150,9.0,13.0,78,0.00,,,0.00,Wunderground v.1.15,2013-06-03 12:45:00,
2013-06-03 07:50:00,56.6,49.5,29.94,South,171,9.0,13.0,77,0.00,,,0.00,Wunderground v.1.15,2013-06-03 12:50:00,
2013-06-03 07:55:00,56.8,49.7,29.94,South,172,10.0,13.0,77,0.00,,,0.00,Wunderground v.1.15,2013-06-03 12:55:00,
2013-06-03 08:00:00,57.1,49.6,29.94,SSE,148,10.0,13.0,76,0.00,,,0.00,Wunderground v.1.15,2013-06-03 13:00:00,
2013-06-03 08:05:00,57.5,50.3,29.94,South,171,10.0,13.0,77,0.00,,,0.00,Wunderground v.1.15,2013-06-03 13:05:00,
2013-06-03 08:10:00,57.8,49.9,29.94,SSE,155,10.0,10.0,75,0.00,,,0.00,Wunderground v.1.15,2013-06-03 13:10:00,
2013-06-03 08:15:00,58.1,49.9,29.94,SE,139,11.0,12.0,74,0.00,,,0.00,Wunderground v.1.15,2013-06-03 13:15:00,
2013-06-03 08:24:00,58.6,50.3,29.94,SSE,159,11.0,12.0,74,0.00,,,0.00,Wunderground v.1.15,2013-06-03 13:24:00,
2013-06-03 08:34:00,59.0,50.0,29.94,SSE,161,10.0,13.0,72,0.00,,,0.00,Wunderground v.1.15,2013-06-03 13:34:00,
2013-06-03 08:39:00,59.2,50.2,29.94,South,183,10.0,10.0,72,0.00,,,0.00,Wunderground v.1.15,2013-06-03 13:39:00,
2013-06-03 08:44:00,59.4,50.7,29.94,SSE,147,10.0,13.0,73,0.00,,,0.00,Wunderground v.1.15,2013-06-03 13:44:00,
2013-06-03 08:50:00,59.8,50.4,29.94,SSE,159,10.0,13.0,71,0.00,,,0.00,Wunderground v.1.15,2013-06-03 13:50:00,
2013-06-03 08:55:00,60.0,50.9,29.94,South,169,10.0,13.0,72,0.00,,,0.00,Wunderground v.1.15,2013-06-03 13:55:00,
2013-06-03 09:05:00,60.6,50.8,29.94,SSE,152,10.0,14.0,70,0.00,,,0.00,Wunderground v.1.15,2013-06-03 14:05:00,
2013-06-03 09:10:00,60.7,50.9,29.94,SE,146,11.0,14.0,70,0.00,,,0.00,Wunderground v.1.15,2013-06-03 14:10:00,
2013-06-03 09:15:00,60.9,50.7,29.94,SE,140,12.0,15.0,69,0.00,,,0.00,Wunderground v.1.15,2013-06-03 14:15:00,
2013-06-03 09:20:00,61.2,50.6,29.94,SSE,165,12.0,12.0,68,0.00,,,0.00,Wunderground v.1.15,2013-06-03 14:20:00,
2013-06-03 09:29:00,61.4,50.7,29.93,SSE,157,12.0,12.0,68,0.00,,,0.00,Wunderground v.1.15,2013-06-03 14:29:00,
2013-06-03 09:39:00,61.8,50.7,29.93,SSE,166,11.0,11.0,67,0.00,,,0.00,Wunderground v.1.15,2013-06-03 14:39:00,
2013-06-03 09:44:00,62.2,50.7,29.93,South,188,11.0,13.0,66,0.00,,,0.00,Wunderground v.1.15,2013-06-03 14:44:00,
2013-06-03 09:49:00,62.5,50.6,29.92,SE,145,12.0,13.0,65,0.00,,,0.00,Wunderground v.1.15,2013-06-03 14:49:00,
2013-06-03 09:55:00,62.5,50.6,29.92,SE,133,12.0,14.0,65,0.00,,,0.00,Wunderground v.1.15,2013-06-03 14:55:00,
2013-06-03 10:00:00,62.8,50.9,29.92,SSE,148,12.0,12.0,65,0.00,,,0.00,Wunderground v.1.15,2013-06-03 15:00:00,
2013-06-03 10:05:00,63.0,50.6,29.92,SE,146,12.0,13.0,64,0.00,,,0.00,Wunderground v.1.15,2013-06-03 15:05:00,
2013-06-03 10:15:00,63.2,50.4,29.92,SE,136,12.0,17.0,63,0.00,,,0.00,Wunderground v.1.15,2013-06-03 15:15:00,
2013-06-03 10:20:00,63.4,50.6,29.92,SSE,166,12.0,12.0,63,0.00,,,0.00,Wunderground v.1.15,2013-06-03 15:20:00,
2013-06-03 10:25:00,63.6,50.8,29.92,SE,144,12.0,13.0,63,0.00,,,0.00,Wunderground v.1.15,2013-06-03 15:25:00,
2013-06-03 10:34:00,64.2,50.5,29.91,South,188,11.0,13.0,61,0.00,,,0.00,Wunderground v.1.15,2013-06-03 15:34:00,
2013-06-03 10:39:00,64.4,50.7,29.92,SE,130,11.0,15.0,61,0.00,,,0.00,Wunderground v.1.15,2013-06-03 15:39:00,
2013-06-03 10:44:00,64.5,49.8,29.91,SSE,153,11.0,15.0,59,0.00,,,0.00,Wunderground v.1.15,2013-06-03 15:44:00,
2013-06-03 10:49:00,64.5,49.4,29.92,SSE,157,12.0,14.0,58,0.00,,,0.00,Wunderground v.1.15,2013-06-03 15:49:00,
2013-06-03 10:54:00,64.8,51.0,29.92,SE,128,11.0,18.0,61,0.00,,,0.00,Wunderground v.1.15,2013-06-03 15:54:00,
2013-06-03 11:00:00,64.9,50.2,29.91,SSE,153,11.0,13.0,59,0.00,,,0.00,Wunderground v.1.15,2013-06-03 16:00:00,
2013-06-03 11:05:00,65.4,50.7,29.91,SSE,151,11.0,13.0,59,0.00,,,0.00,Wunderground v.1.15,2013-06-03 16:05:00,
2013-06-03 11:10:00,65.5,49.9,29.91,ESE,123,12.0,15.0,57,0.00,,,0.00,Wunderground v.1.15,2013-06-03 16:10:00,
2013-06-03 11:20:00,65.5,50.8,29.90,SSE,155,12.0,12.0,59,0.00,,,0.00,Wunderground v.1.15,2013-06-03 16:20:00,
2013-06-03 11:25:00,65.8,52.0,29.90,SE,142,12.0,13.0,61,0.00,,,0.00,Wunderground v.1.15,2013-06-03 16:25:00,
2013-06-03 11:30:00,65.9,50.7,29.90,SSE,165,12.0,12.0,58,0.00,,,0.00,Wunderground v.1.15,2013-06-03 16:30:00,
2013-06-03 11:39:00,65.9,51.2,29.89,ESE,117,11.0,11.0,59,0.00,,,0.00,Wunderground v.1.15,2013-06-03 16:39:00,
2013-06-03 11:44:00,66.0,50.3,29.89,SSE,148,12.0,19.0,57,0.00,,,0.00,Wunderground v.1.15,2013-06-03 16:44:00,
2013-06-03 11:54:00,66.3,51.1,29.89,SE,127,13.0,14.0,58,0.00,,,0.00,Wunderground v.1.15,2013-06-03 16:54:00,
2013-06-03 11:59:00,66.4,50.2,29.89,ESE,121,14.0,18.0,56,0.00,,,0.00,Wunderground v.1.15,2013-06-03 16:59:00,
2013-06-03 12:05:00,66.5,51.3,29.88,SE,129,15.0,18.0,58,0.00,,,0.00,Wunderground v.1.15,2013-06-03 17:05:00,
2013-06-03 12:10:00,66.8,52.5,29.88,ESE,113,13.0,13.0,60,0.00,,,0.00,Wunderground v.1.15,2013-06-03 17:10:00,
2013-06-03 12:15:00,67.4,52.6,29.87,SE,135,12.0,18.0,59,0.00,,,0.00,Wunderground v.1.15,2013-06-03 17:15:00,
2013-06-03 12:20:00,67.4,51.6,29.87,SE,129,13.0,13.0,57,0.00,,,0.00,Wunderground v.1.15,2013-06-03 17:20:00,
2013-06-03 12:25:00,67.6,52.3,29.87,SE,130,15.0,15.0,58,0.00,,,0.00,Wunderground v.1.15,2013-06-03 17:25:00,
2013-06-03 12:30:00,67.9,51.6,29.86,SSE,163,14.0,14.0,56,0.00,,,0.00,Wunderground v.1.15,2013-06-03 17:30:00,
2013-06-03 12:35:00,68.1,50.8,29.86,SSE,153,13.0,17.0,54,0.00,,,0.00,Wunderground v.1.15,2013-06-03 17:35:00,
2013-06-03 12:44:00,68.5,51.2,29.86,SE,144,13.0,20.0,54,0.00,,,0.00,Wunderground v.1.15,2013-06-03 17:44:00,
2013-06-03 12:49:00,68.7,50.9,29.86,SSE,167,13.0,16.0,53,0.00,,,0.00,Wunderground v.1.15,2013-06-03 17:49:00,
2013-06-03 12:54:00,68.9,50.5,29.86,South,171,13.0,16.0,52,0.00,,,0.00,Wunderground v.1.15,2013-06-03 17:54:00,
2013-06-03 13:05:00,69.1,50.2,29.85,South,182,13.0,14.0,51,0.00,,,0.00,Wunderground v.1.15,2013-06-03 18:05:00,
2013-06-03 13:10:00,69.2,50.8,29.85,SE,144,12.0,14.0,52,0.00,,,0.00,Wunderground v.1.15,2013-06-03 18:10:00,
2013-06-03 13:15:00,69.3,51.9,29.84,South,179,13.0,14.0,54,0.00,,,0.00,Wunderground v.1.15,2013-06-03 18:15:00,
2013-06-03 13:20:00,69.7,51.3,29.84,SE,146,13.0,14.0,52,0.00,,,0.00,Wunderground v.1.15,2013-06-03 18:20:00,
2013-06-03 13:25:00,70.0,52.1,29.84,SE,126,12.0,15.0,53,0.00,,,0.00,Wunderground v.1.15,2013-06-03 18:25:00,
2013-06-03 13:35:00,69.9,52.0,29.83,SE,136,13.0,13.0,53,0.00,,,0.00,Wunderground v.1.15,2013-06-03 18:35:00,
2013-06-03 13:40:00,70.0,51.6,29.82,SE,134,14.0,15.0,52,0.00,,,0.00,Wunderground v.1.15,2013-06-03 18:40:00,
2013-06-03 13:49:00,70.2,51.2,29.82,SE,130,14.0,17.0,51,0.00,,,0.00,Wunderground v.1.15,2013-06-03 18:49:00,
2013-06-03 13:54:00,70.5,51.5,29.82,East,96,14.0,17.0,51,0.00,,,0.00,Wunderground v.1.15,2013-06-03 18:54:00,
2013-06-03 13:59:00,70.5,52.0,29.82,SE,132,14.0,19.0,52,0.00,,,0.00,Wunderground v.1.15,2013-06-03 18:59:00,
2013-06-03 14:09:00,70.8,51.8,29.82,ESE,113,15.0,15.0,51,0.00,,,0.00,Wunderground v.1.15,2013-06-03 19:09:00,
2013-06-03 14:15:00,71.1,52.0,29.82,SSE,155,14.0,15.0,51,0.00,,,0.00,Wunderground v.1.15,2013-06-03 19:15:00,
2013-06-03 14:20:00,71.6,52.5,29.81,SE,130,13.0,13.0,51,0.00,,,0.00,Wunderground v.1.15,2013-06-03 19:20:00,
2013-06-03 14:25:00,71.7,52.1,29.82,SE,145,12.0,13.0,50,0.00,,,0.00,Wunderground v.1.15,2013-06-03 19:25:00,
2013-06-03 14:30:00,71.5,51.3,29.81,SE,144,13.0,13.0,49,0.00,,,0.00,Wunderground v.1.15,2013-06-03 19:30:00,
2013-06-03 14:35:00,72.0,51.2,29.81,SE,124,13.0,19.0,48,0.00,,,0.00,Wunderground v.1.15,2013-06-03 19:35:00,
2013-06-03 14:45:00,72.3,50.9,29.80,ESE,119,13.0,20.0,47,0.00,,,0.00,Wunderground v.1.15,2013-06-03 19:45:00,
2013-06-03 14:54:00,72.6,51.2,29.79,SSE,154,14.0,14.0,47,0.00,,,0.00,Wunderground v.1.15,2013-06-03 19:54:00,
2013-06-03 14:59:00,72.6,51.8,29.79,SE,128,15.0,15.0,48,0.00,,,0.00,Wunderground v.1.15,2013-06-03 19:59:00,
2013-06-03 15:04:00,72.7,51.3,29.79,ESE,119,15.0,15.0,47,0.00,,,0.00,Wunderground v.1.15,2013-06-03 20:04:00,
2013-06-03 15:10:00,72.8,52.0,29.79,South,169,14.0,14.0,48,0.00,,,0.00,Wunderground v.1.15,2013-06-03 20:10:00,
2013-06-03 15:20:00,72.9,50.9,29.78,SE,134,15.0,15.0,46,0.00,,,0.00,Wunderground v.1.15,2013-06-03 20:20:00,
2013-06-03 15:25:00,72.9,52.1,29.78,SSE,155,15.0,16.0,48,0.00,,,0.00,Wunderground v.1.15,2013-06-03 20:25:00,
2013-06-03 15:30:00,73.0,52.1,29.77,ESE,116,15.0,15.0,48,0.00,,,0.00,Wunderground v.1.15,2013-06-03 20:30:00,
2013-06-03 15:35:00,73.2,52.9,29.77,SSE,164,16.0,19.0,49,0.00,,,0.00,Wunderground v.1.15,2013-06-03 20:35:00,
2013-06-03 15:40:00,73.3,52.4,29.77,SE,131,15.0,16.0,48,0.00,,,0.00,Wunderground v.1.15,2013-06-03 20:40:00,
2013-06-03 15:50:00,73.5,53.7,29.77,South,175,14.0,14.0,50,0.00,,,0.00,Wunderground v.1.15,2013-06-03 20:50:00,
2013-06-03 15:59:00,73.7,52.8,29.77,SSE,163,14.0,19.0,48,0.00,,,0.00,Wunderground v.1.15,2013-06-03 20:59:00,
2013-06-03 16:04:00,73.8,52.3,29.77,SE,141,15.0,19.0,47,0.00,,,0.00,Wunderground v.1.15,2013-06-03 21:04:00,
2013-06-03 16:09:00,73.8,53.4,29.77,SE,142,15.0,20.0,49,0.00,,,0.00,Wunderground v.1.15,2013-06-03 21:09:00,
2013-06-03 16:15:00,74.0,53.1,29.77,SSE,150,14.0,20.0,48,0.00,,,0.00,Wunderground v.1.15,2013-06-03 21:15:00,
2013-06-03 16:25:00,74.1,53.2,29.76,SSE,155,14.0,15.0,48,0.00,,,0.00,Wunderground v.1.15,2013-06-03 21:25:00,
2013-06-03 16:30:00,74.1,53.2,29.76,SSE,158,15.0,17.0,48,0.00,,,0.00,Wunderground v.1.15,2013-06-03 21:30:00,
2013-06-03 16:35:00,74.3,53.9,29.76,SSE,155,14.0,17.0,49,0.00,,,0.00,Wunderground v.1.15,2013-06-03 21:35:00,
2013-06-03 16:40:00,74.2,53.2,29.76,SSE,159,14.0,14.0,48,0.00,,,0.00,Wunderground v.1.15,2013-06-03 21:40:00,
2013-06-03 16:45:00,74.3,53.3,29.76,SSE,157,15.0,16.0,48,0.00,,,0.00,Wunderground v.1.15,2013-06-03 21:45:00,
2013-06-03 16:55:00,74.5,54.1,29.75,SSE,159,13.0,16.0,49,0.00,,,0.00,Wunderground v.1.15,2013-06-03 21:55:00,
2013-06-03 17:04:00,75.0,54.5,29.76,SSE,165,12.0,13.0,49,0.00,,,0.00,Wunderground v.1.15,2013-06-03 22:04:00,
2013-06-03 17:09:00,75.1,53.5,29.75,SSE,148,12.0,13.0,47,0.00,,,0.00,Wunderground v.1.15,2013-06-03 22:09:00,
2013-06-03 17:14:00,74.9,53.9,29.75,South,186,13.0,13.0,48,0.00,,,0.00,Wunderground v.1.15,2013-06-03 22:14:00,
2013-06-03 17:20:00,74.7,55.4,29.75,SE,136,14.0,14.0,51,0.00,,,0.00,Wunderground v.1.15,2013-06-03 22:20:00,
2013-06-03 17:25:00,75.0,54.5,29.75,SE,143,14.0,14.0,49,0.00,,,0.00,Wunderground v.1.15,2013-06-03 22:25:00,
2013-06-03 17:35:00,74.7,54.3,29.74,SSE,148,14.0,19.0,49,0.00,,,0.00,Wunderground v.1.15,2013-06-03 22:35:00,
2013-06-03 17:40:00,74.9,54.4,29.74,SSE,165,15.0,15.0,49,0.00,,,0.00,Wunderground v.1.15,2013-06-03 22:40:00,
2013-06-03 17:45:00,74.9,55.0,29.73,SSE,151,14.0,20.0,50,0.00,,,0.00,Wunderground v.1.15,2013-06-03 22:45:00,
2013-06-03 17:50:00,74.7,54.8,29.74,SE,144,15.0,15.0,50,0.00,,,0.00,Wunderground v.1.15,2013-06-03 22:50:00,
2013-06-03 17:59:00,74.6,55.3,29.73,SSE,149,14.0,17.0,51,0.00,,,0.00,Wunderground v.1.15,2013-06-03 22:59:00,
2013-06-03 18:09:00,74.7,54.8,29.73,SE,136,14.0,14.0,50,0.00,,,0.00,Wunderground v.1.15,2013-06-03 23:09:00,
2013-06-03 18:14:00,74.8,55.5,29.73,SE,135,14.0,19.0,51,0.00,,,0.00,Wunderground v.1.15,2013-06-03 23:14:00,
2013-06-03 18:19:00,74.7,55.4,29.73,SE,146,15.0,15.0,51,0.00,,,0.00,Wunderground v.1.15,2013-06-03 23:19:00,
2013-06-03 18:25:00,74.7,54.8,29.73,SE,131,15.0,17.0,50,0.00,,,0.00,Wunderground v.1.15,2013-06-03 23:25:00,
2013-06-03 18:30:00,74.6,54.7,29.73,South,191,14.0,14.0,50,0.00,,,0.00,Wunderground v.1.15,2013-06-03 23:30:00,
2013-06-03 18:40:00,74.7,54.8,29.73,SE,136,12.0,12.0,50,0.00,,,0.00,Wunderground v.1.15,2013-06-03 23:40:00,
2013-06-03 18:45:00,74.5,53.5,29.74,SSE,155,13.0,13.0,48,0.00,,,0.00,Wunderground v.1.15,2013-06-03 23:45:00,
2013-06-03 18:50:00,74.4,54.0,29.74,SE,132,15.0,21.0,49,0.00,,,0.00,Wunderground v.1.15,2013-06-03 23:50:00,
2013-06-03 18:55:00,74.3,53.9,29.74,SE,125,15.0,21.0,49,0.00,,,0.00,Wunderground v.1.15,2013-06-03 23:55:00,
2013-06-03 19:00:00,74.2,54.4,29.73,SSE,161,15.0,15.0,50,0.00,,,0.00,Wunderground v.1.15,2013-06-04 00:00:00,
2013-06-03 19:09:00,74.1,54.8,29.74,SSE,165,13.0,13.0,51,0.00,,,0.00,Wunderground v.1.15,2013-06-04 00:09:00,
2013-06-03 19:14:00,74.0,54.7,29.75,SSE,155,11.0,13.0,51,0.00,,,0.00,Wunderground v.1.15,2013-06-04 00:14:00,
2013-06-03 19:19:00,73.8,54.5,29.74,SE,146,12.0,13.0,51,0.00,,,0.00,Wunderground v.1.15,2013-06-04 00:19:00,
2013-06-03 19:24:00,73.7,55.0,29.74,SSE,150,13.0,13.0,52,0.00,,,0.00,Wunderground v.1.15,2013-06-04 00:24:00,
2013-06-03 19:30:00,73.7,54.4,29.74,SSE,156,12.0,16.0,51,0.00,,,0.00,Wunderground v.1.15,2013-06-04 00:30:00,
2013-06-03 19:35:00,73.5,54.8,29.74,ESE,115,12.0,16.0,52,0.00,,,0.00,Wunderground v.1.15,2013-06-04 00:35:00,
2013-06-03 19:40:00,73.4,55.2,29.75,SE,135,13.0,13.0,53,0.00,,,0.00,Wunderground v.1.15,2013-06-04 00:40:00,
2013-06-03 19:50:00,73.2,55.0,29.75,SSE,150,9.0,9.0,53,0.00,,,0.00,Wunderground v.1.15,2013-06-04 00:50:00,
2013-06-03 19:55:00,73.1,54.4,29.76,South,181,10.0,10.0,52,0.00,,,0.00,Wunderground v.1.15,2013-06-04 00:55:00,
2013-06-03 20:00:00,73.0,54.9,29.76,ESE,116,12.0,15.0,53,0.00,,,0.00,Wunderground v.1.15,2013-06-04 01:00:00,
2013-06-03 20:09:00,72.6,54.0,29.77,SE,142,12.0,12.0,52,0.00,,,0.00,Wunderground v.1.15,2013-06-04 01:09:00,
2013-06-03 20:14:00,72.6,54.0,29.77,SSE,157,13.0,13.0,52,0.00,,,0.00,Wunderground v.1.15,2013-06-04 01:14:00,
2013-06-03 20:24:00,72.2,54.1,29.78,South,169,11.0,13.0,53,0.00,,,0.00,Wunderground v.1.15,2013-06-04 01:24:00,
2013-06-03 20:30:00,72.1,54.5,29.78,SSE,161,11.0,13.0,54,0.00,,,0.00,Wunderground v.1.15,2013-06-04 01:30:00,
2013-06-03 20:35:00,72.0,54.4,29.78,ESE,123,12.0,13.0,54,0.00,,,0.00,Wunderground v.1.15,2013-06-04 01:35:00,
2013-06-03 20:40:00,71.7,54.2,29.78,SSE,151,10.0,10.0,54,0.00,,,0.00,Wunderground v.1.15,2013-06-04 01:40:00,
2013-06-03 20:45:00,71.7,54.2,29.78,ESE,116,10.0,13.0,54,0.00,,,0.00,Wunderground v.1.15,2013-06-04 01:45:00,
2013-06-03 20:55:00,71.2,54.7,29.78,SE,127,9.0,13.0,56,0.00,,,0.00,Wunderground v.1.15,2013-06-04 01:55:00,
2013-06-03 21:00:00,71.2,54.7,29.77,ESE,123,11.0,11.0,56,0.00,,,0.00,Wunderground v.1.15,2013-06-04 02:00:00,
2013-06-03 21:09:00,70.6,55.1,29.77,SE,143,8.0,8.0,58,0.00,,,0.00,Wunderground v.1.15,2013-06-04 02:09:00,
2013-06-03 21:14:00,70.3,55.3,29.77,SSE,152,9.0,9.0,59,0.00,,,0.00,Wunderground v.1.15,2013-06-04 02:14:00,
2013-06-03 21:19:00,70.2,55.2,29.77,SE,142,9.0,14.0,59,0.00,,,0.00,Wunderground v.1.15,2013-06-04 02:19:00,
2013-06-03 21:29:00,70.0,55.0,29.77,SE,141,11.0,13.0,59,0.00,,,0.00,Wunderground v.1.15,2013-06-04 02:29:00,
2013-06-03 21:35:00,69.9,54.9,29.77,SE,136,11.0,13.0,59,0.00,,,0.00,Wunderground v.1.15,2013-06-04 02:35:00,
2013-06-03 21:40:00,69.8,54.8,29.77,SE,143,11.0,13.0,59,0.00,,,0.00,Wunderground v.1.15,2013-06-04 02:40:00,
2013-06-03 21:45:00,69.8,54.8,29.77,SE,142,11.0,13.0,59,0.00,,,0.00,Wunderground v.1.15,2013-06-04 02:45:00,
2013-06-03 21:50:00,69.7,55.2,29.77,SE,145,12.0,12.0,60,0.00,,,0.00,Wunderground v.1.15,2013-06-04 02:50:00,
2013-06-03 21:55:00,69.6,55.1,29.77,SE,125,12.0,13.0,60,0.00,,,0.00,Wunderground v.1.15,2013-06-04 02:55:00,
2013-06-03 22:05:00,69.4,55.4,29.78,SSE,153,10.0,13.0,61,0.00,,,0.00,Wunderground v.1.15,2013-06-04 03:05:00,
2013-06-03 22:14:00,69.1,55.1,29.77,SE,144,10.0,14.0,61,0.00,,,0.00,Wunderground v.1.15,2013-06-04 03:14:00,
2013-06-03 22:19:00,69.0,55.4,29.77,SE,143,11.0,11.0,62,0.00,,,0.00,Wunderground v.1.15,2013-06-04 03:19:00,
2013-06-03 22:24:00,68.9,55.3,29.77,SE,134,13.0,14.0,62,0.00,,,0.00,Wunderground v.1.15,2013-06-04 03:24:00,
2013-06-03 22:30:00,68.8,55.2,29.77,SE,132,13.0,14.0,62,0.00,,,0.00,Wunderground v.1.15,2013-06-04 03:30:00,
2013-06-03 22:40:00,68.5,55.8,29.77,SE,126,13.0,13.0,64,0.00,,,0.00,Wunderground v.1.15,2013-06-04 03:40:00,
2013-06-03 22:45:00,68.3,55.6,29.77,SSE,159,11.0,13.0,64,0.00,,,0.00,Wunderground v.1.15,2013-06-04 03:45:00,
2013-06-03 22:50:00,68.3,56.1,29.77,ESE,121,12.0,17.0,65,0.00,,,0.00,Wunderground v.1.15,2013-06-04 03:50:00,
2013-06-03 22:55:00,68.2,56.0,29.78,SE,142,12.0,17.0,65,0.00,,,0.00,Wunderground v.1.15,2013-06-04 03:55:00,
2013-06-03 23:00:00,68.2,56.0,29.78,ESE,111,12.0,19.0,65,0.00,,,0.00,Wunderground v.1.15,2013-06-04 04:00:00,
2013-06-03 23:05:00,68.1,56.3,29.78,SE,144,11.0,19.0,66,0.00,,,0.00,Wunderground v.1.15,2013-06-04 04:05:00,
2013-06-03 23:10:00,68.0,56.2,29.78,SSE,148,10.0,13.0,66,0.00,,,0.00,Wunderground v.1.15,2013-06-04 04:10:00,
2013-06-03 23:19:00,67.7,55.5,29.78,SE,141,11.0,17.0,65,0.00,,,0.00,Wunderground v.1.15,2013-06-04 04:19:00,
2013-06-03 23:24:00,67.8,55.2,29.79,SSE,167,12.0,17.0,64,0.00,,,0.00,Wunderground v.1.15,2013-06-04 04:24:00,
2013-06-03 23:29:00,67.7,55.1,29.79,SE,143,12.0,12.0,64,0.00,,,0.00,Wunderground v.1.15,2013-06-04 04:29:00,
2013-06-03 23:35:00,67.6,55.4,29.80,SE,146,12.0,13.0,65,0.00,,,0.00,Wunderground v.1.15,2013-06-04 04:35:00,
2013-06-03 23:39:00,67.5,55.3,29.80,SE,142,11.0,11.0,65,0.00,,,0.00,Wunderground v.1.15,2013-06-04 04:39:00,
2013-06-03 23:45:00,67.4,55.6,29.80,SE,131,11.0,16.0,66,0.00,,,0.00,Wunderground v.1.15,2013-06-04 04:45:00,
2013-06-03 23:50:00,67.3,55.5,29.81,SSE,161,12.0,13.0,66,0.00,,,0.00,Wunderground v.1.15,2013-06-04 04:50:00,
2013-06-03 23:55:00,67.2,55.5,29.82,SE,146,11.0,13.0,66,0.00,,,0.00,Wunderground v.1.15,2013-06-04 04:55:00,